Regional Weather Roundup
Issued by NWS

Home | Current Version | Previous Version | Graphics & Text | Print | Product List | Glossary On
Versions: 1 2 3 4 5 6 7 8 9 10 11 12 13 14 15 16 17 18 19 20 21 22 23 24 25 26 27 28 29 30 31 32 33 34 35 36 37 38 39 40 41 42 43 44 45 46 47 48 49 50
000
ASUS43 KFSD 281810
RWRSD

WEATHER ROUNDUP FOR SOUTH DAKOTA
NATIONAL WEATHER SERVICE SIOUX FALLS SD
100 PM CDT THU MAY 28 2015

NOTE: "FAIR" INDICATES FEW OR NO CLOUDS BELOW 12,000 FEET WITH NO
SIGNIFICANT WEATHER AND/OR OBSTRUCTIONS TO VISIBILITY.


SDZ001>005-009-010-012>017-281900-
NORTHWEST AND NORTH CENTRAL SOUTH DAKOTA

CITY           SKY/WX    TMP DP  RH WIND       PRES   REMARKS
BUFFALO          N/A     70  52  52 NW20      29.87S
FAITH            N/A     74  55  51 VRB3      29.92R
MOBRIDGE       PTSUNNY   73  61  65 S6        29.86R
$$

SDZ012>016-024>037-041>051-057-063-072>074-281900-
SOUTHWEST AND SOUTH CENTRAL SOUTH DAKOTA

CITY           SKY/WX    TMP DP  RH WIND       PRES   REMARKS
RAPID CTY ARPT MOSUNNY   72  53  51 NE13      29.95S
PIERRE         MOSUNNY   76  60  57 VRB7      29.85F
CUSTER         MOSUNNY   65  48  54 VRB5      30.03R
ELLSWORTH AFB  MOSUNNY   71  52  51 NE7G17    29.95S
PHILIP         CLOUDY    73  61  65 NW6       29.90S
PINE RIDGE     MOSUNNY   71  49  45 W12       29.94F
SPEARFISH      FAIR      66  54  63 N5        29.99F
WINNER         FAIR      80  55  42 S13       29.90S
$$

SDZ004>011-016>023-039-040-281900-
NORTHEAST SOUTH DAKOTA

CITY           SKY/WX    TMP DP  RH WIND       PRES   REMARKS
ABERDEEN       SUNNY     80  60  50 S25G35    29.86F
WATERTOWN      SUNNY     75  60  59 S25G35    29.93F
BROOKINGS      MOSUNNY   73  59  60 S20       29.98F
SISSETON         N/A     81  56  42 SW28G36   29.89F
$$

SDZ017-020-022-023-036>040-048>070-281900-
SOUTHEAST SOUTH DAKOTA

CITY           SKY/WX    TMP DP  RH WIND       PRES   REMARKS
SIOUX FALLS    PTSUNNY   79  58  48 S17       29.96F
HURON            N/A    N/A N/A N/A MISG      29.88F
CHAMBERLAIN    MOSUNNY   79  58  49 SW12G17   29.88F
MITCHELL       MOSUNNY   81  60  48 S18G28    29.90F
YANKTON        MOSUNNY   82  57  42 S21       29.92F
$$

ABBREVIATIONS USED IN REMARKS
   TC - TEMPERATURE IN CELSIUS
  WCI - WIND CHILL INDEX
   HX - HEAT INDEX
  VSB - VISIBILITY




USA.gov is the U.S. government's official web portal to all federal, state and local government web resources and services.